Regional Weather Roundup
Issued by NWS

Home | Current Version | Previous Version | Graphics & Text | Print | Product List | Glossary On
Versions: 1 2 3 4 5 6 7 8 9 10 11 12 13 14 15 16 17 18 19 20 21 22 23 24 25 26 27 28 29 30 31 32 33 34 35 36 37 38 39 40 41 42 43 44 45 46 47 48 49 50
000
ASUS43 KMKX 261700
RWRWI

WISCONSIN REGIONAL WEATHER ROUNDUP
NATIONAL WEATHER SERVICE MILWAUKEE/SULLIVAN WI
1100 AM CST MON JAN 26 2015

NOTE: "FAIR" INDICATES FEW OR NO CLOUDS BELOW 12,000 FEET WITH NO
SIGNIFICANT WEATHER AND/OR OBSTRUCTIONS TO VISIBILITY.

WIZ001-002-006>008-014>016-023>028-261800-
NORTHWEST WISCONSIN

CITY           SKY/WX    TMP DP  RH WIND       PRES   REMARKS
SUPERIOR ARPT  MIX PCPN  25  23  94 CALM      29.70R
ASHLAND        FLURRIES  23  19  85 S6        29.72R WCI  16
HAYWARD        CLOUDY    21  18  88 S6        29.70R FOG     WCI  13
SIREN          LGT SNOW  27  26  96 CALM      29.69R
CUMBERLAND     LGT SNOW  23  23 100 S6        29.69R WCI  16
RICE LAKE      LGT SNOW  23  21  93 SE6       29.72R WCI  15
CHETEK         LGT SNOW  21  20  96 SE7       29.71S WCI  13
LADYSMITH      LGT SNOW  21  19  93 SE7       29.73F WCI  12
EAU CLAIRE     NOT AVBL
MENOMONIE      CLOUDY    26  24  93 E5        29.71F FOG     WCI  20
NEW RICHMOND   CLOUDY    31  30  94 SW6       29.69R WCI  25
OSCEOLA        CLOUDY    31  31  99 SW5       29.72R WCI  26
$$

WIZ003>005-009-010-017-018-261800-
NORTH CENTRAL WISCONSIN

CITY           SKY/WX    TMP DP  RH WIND       PRES   REMARKS
MANITOWISH WTR LGT SNOW  16  13  88 S10G16    29.71S WCI   3
ARBOR VITAE    LGT SNOW  18  14  84 S8G17     29.73R WCI   8
WOODRUFF       LGT SNOW  18  14  84 S8G17     29.73R WCI   8
RHINELANDER    SNOW      16  12  84 S9        29.75S VSB 1/2 WCI   4
EAGLE RIVER    SNOW      16  11  82 S6        29.74S VSB 1/2 WCI   7
LAND O LAKES   LGT SNOW  17  13  86 S8        29.74S VSB 1   WCI   6
PHILLIPS       CLOUDY    17  15  93 S7        29.71R FOG     WCI   8
TOMAHAWK       LGT SNOW  16  12  84 CALM      29.76R
MEDFORD        MIX PCPN  17  15  90 SE7       29.74R WCI   8
MERRILL        LGT SNOW  17  13  85 SE5       29.77R WCI  10
$$

WIZ029-030-035-036-043>047-261800-
CENTRAL WISCONSIN

CITY           SKY/WX    TMP DP  RH WIND       PRES   REMARKS
WAUSAU         LGT SNOW  18  14  84 SE7       29.78R FOG     WCI   9
MOSINEE        LGT SNOW  18  16  93 SE10      29.78F WCI   6
MARSHFIELD     LGT SNOW  19  16  88 S9        29.76S VSB 3/4 WCI   8
STEVENS POINT  MIX PCPN  16  13  87 SE10      29.81F WCI   4
WAUPACA        LGT SNOW  22  17  79 SE7       29.86S WCI  13
WAUTOMA        LGT SNOW  19  18  93 SE8       29.85F FOG     WCI   9
WISC RAPIDS    LGT SNOW  20  15  81 S7        29.81F WCI  11
CAMP DOUGLAS   NOT AVBL
$$

WIZ011>013-019>022-031-037>040-048>050-261800-
NORTHEAST WISCONSIN

CITY           SKY/WX    TMP DP  RH WIND       PRES   REMARKS
ANTIGO         LGT SNOW  14  11  87 S10       29.79R WCI   1
SHAWANO        CLOUDY    22  14  71 S7        29.88R WCI  14
OCONTO         CLOUDY    19  15  84 CALM      29.90R
STURGEON BAY   CLOUDY    25  16  68 S9        29.90F WCI  15
GREEN BAY      CLOUDY    24  17  74 S13       29.88F WCI  12
MANITOWOC      NOT AVBL
APPLETON       CLOUDY    21  12  68 S10       29.86F WCI  10
CLINTONVILLE   LGT SNOW  21  14  73 S9        29.86S WCI  11
OSHKOSH        CLOUDY    24  16  71 S12       29.87S WCI  13
$$

WIZ032>034-041-042-053>061-261800-
SOUTHWEST WISCONSIN

CITY           SKY/WX    TMP DP  RH WIND       PRES   REMARKS
LA CROSSE      CLOUDY    25  20  81 S14       29.78F WCI  13
SPARTA         CLOUDY    23  19  83 S5        29.80R WCI  17
VIROQUA        CLOUDY    22  20  91 S10       29.77S WCI  11
BOSCOBEL       CLOUDY    24  17  74 VRB7      29.84F WCI  16
PRAIRIE DU CHI CLOUDY    25  19  80 SE9       29.82F WCI  15
PLATTEVILLE    CLOUDY    20  18  89 SE14      29.84F WCI   7
$$

WIZ056-057-062-063-064-067-068-261800-
SOUTH CENTRAL WISCONSIN

CITY           SKY/WX    TMP DP  RH WIND       PRES   REMARKS
REEDSBURG      LGT SNOW  20  16  86 S5        29.82F WCI  13
BARABOO/DELLS  FLURRIES  19  16  86 S12       29.83F WCI   7
LONE ROCK      NOT AVBL
MINERAL POINT  LGT SNOW  21  19  93 S12       29.83F WCI   9
MADISON        LGT SNOW  20  16  84 S10       29.86F FOG     WCI   9
MIDDLETON      CLOUDY    21  16  81 S9        29.87S WCI  11
WATERTOWN      CLOUDY    23  17  79 S10       29.88F WCI  12
MONROE         FLURRIES  19  18  93 S10       29.86S WCI   8
JANESVILLE     CLOUDY    21  18  86 S5        29.89F VSB 3/4 WCI  15
$$

WIZ051-052-058>065-066-070>072-261800-
SOUTHEAST WISCONSIN

CITY           SKY/WX    TMP DP  RH WIND       PRES   REMARKS
MILWAUKEE      PTSUNNY   26  15  63 S8        29.90F WCI  18
WAUKESHA       MOSUNNY   18  14  86 S7        29.90F WCI   8
MILWAUKEE/TIMM MOSUNNY   25  16  68 S9        29.90F WCI  15
RACINE         CLOUDY    26  15  63 S7        29.93F WCI  18
BURLINGTON     PTSUNNY   23  16  75 S8        29.90F WCI  14
KENOSHA        PTSUNNY   26  17  68 S8        29.91F WCI  18
FOND DU LAC    CLOUDY    24  15  68 S16       29.88S WCI  11
SHEBOYGAN      CLOUDY    26  17  68 S12       29.89F WCI  16
WEST BEND      PTSUNNY   25  16  68 S7        29.88F WCI  17
JUNEAU         LGT SNOW  22  16  78 S12       29.89S WCI  10
$$

LSZ147-162-261800-
LAKE SUPERIOR

STATION/POSITION TIME  TEMP    WIND        PRES    WAVE
                       AIR SEA DIR/SP/G            HT/PER
                 (UTC) (F)     (DEG/KT/KT) (MB)    (FT/S)
DEVILS ISLAND    1600   22     170/  7/ 10 1007.3F
PORT WING        1640   24     160/  5/  7 1006.1S
SAXON HARBOR     1600   22     180/  3/  8 1006.4R
$$

LMZ867-665-643>646-261800-
LAKE MICHIGAN

STATION/POSITION TIME  TEMP    WIND        PRES    WAVE
                       AIR SEA DIR/SP/G            HT/PER
                 (UTC) (F)     (DEG/KT/KT) (MB)    (FT/S)
NORTHPORT PIER   1617   22     150/  2/  6 1013.5R
SISTER BAY       1613   24     200/  8/  9   N/A
KEWAUNEE LAKESHO 1600   25     180/ 11/ 16 1012.1F
SHEBOYGAN LAKESH 1600   24     190/  9/ 11 1014.1F
PORT WASHINGTON  1600   26     200/  6/ 10 1014.2F
MILWAUKEE LAKESH 1600   24     190/  9/ 10   N/A
KENOSHA   LAKESH 1600   24     200/  3/  7 1013.9F
$$

TC  - TEMPERATURE IN CELSIUS
VSB - VISIBILITY IN STATUTE MILES
WCI - WIND CHILL INDEX
HX  - HEAT INDEX



USA.gov is the U.S. government's official web portal to all federal, state and local government web resources and services.